This demonstration page uses our WeatherBlox Daily Observations layout. Learn more.

Left ArrowRight Arrow

34.74481, -87.66753

Hourly Observations for May 27, 2021

Temp ( °F °C ) Dew Point ( °F °C ) Humidity (%) Winds ( mph kmh ) Pressure ( in mb ) Visibility ( mi km ) Precip ( " mm )
12:12 am 00:12 Cloudy with Mist and Fog 70 21.1 66 18.9 87 87 Calm 30.09 1019 2 2 0.00 0.00
12:19 am 00:19 Mostly Cloudy with Mist and Fog 70 21.1 66 18.9 87 87 Calm 30.09 1019 3 5 0.00 0.00
12:43 am 00:43 Partly Cloudy 70 21.1 66 18.9 87 87 W 3 6 30.09 1019 9 14 0.00 0.00
12:53 am 00:53 Mostly Clear 70 21.1 66 18.9 87 87 Calm 30.07 1018 7 11 0.00 0.00
1:27 am 01:27 Partly Cloudy with Mist and Fog 69 20.6 65 18.3 87 87 Calm 30.08 1019 2 3 0.00 0.00
1:34 am 01:34 Mostly Cloudy with Fog 68 20 64 17.8 87 87 Calm 30.08 1019 1 1 0.00 0.00
1:50 am 01:50 Cloudy with Fog 70 21 64 18 83 83 SE 5 7 30.08 1018 1 1 0.00 0.00
1:53 am 01:53 Cloudy with Fog 68 20 65 18.3 90 90 ESE 3 6 30.07 1018 1 1 0.00 0.00
2:29 am 02:29 Cloudy with Mist and Fog 69 20.6 65 18.3 87 87 Calm 30.08 1019 1 2 0.00 0.00
2:39 am 02:39 Cloudy with Fog 69 20.6 65 18.3 87 87 Calm 30.07 1018 0 0 0.00 0.00
2:53 am 02:53 Cloudy with Fog 69 20.6 66 18.9 90 90 Calm 30.06 1018 0 0 0.00 0.00
3:03 am 03:03 Mostly Cloudy with Mist and Fog 69 20.6 65 18.3 87 87 Calm 30.06 1018 1 1 0.00 0.00
3:10 am 03:10 Cloudy with Mist and Fog 68 20 65 18.3 90 90 Calm 30.06 1018 2 2 0.00 0.00
3:20 am 03:20 Mostly Cloudy with Mist and Fog 69 20.6 65 18.3 87 87 Calm 30.06 1018 3 5 0.00 0.00
3:53 am 03:53 Cloudy 69 20.6 65 18.3 87 87 Calm 30.05 1018 7 11 0.00 0.00
4:53 am 04:53 Cloudy with Mist and Fog 70 21.1 66 18.9 87 87 Calm 30.07 1018 5 8 0.00 0.00
5:53 am 05:53 Cloudy with Mist and Fog 71 21.7 67 19.4 87 87 Calm 30.09 1019 4 6 0.00 0.00
6:32 am 06:32 Cloudy with Haze 71 21.7 66 18.9 84 84 Calm 30.10 1019 6 10 0.00 0.00
6:39 am 06:39 Cloudy with Haze 71 21.7 66 18.9 84 84 Calm 30.10 1019 6 10 0.00 0.00
6:46 am 06:46 Cloudy with Mist and Fog 71 21.7 67 19.4 87 87 Calm 30.10 1019 6 10 0.00 0.00
6:53 am 06:53 Cloudy with Mist and Fog 71 21.7 67 19.4 87 87 Calm 30.10 1019 6 10 0.00 0.00
7:38 am 07:38 Cloudy with Haze 71 21.7 66 18.9 84 84 NE 3 6 30.09 1019 5 8 0.00 0.00
7:53 am 07:53 Cloudy with Mist and Fog 71 21.7 67 19.4 87 87 ENE 3 6 30.09 1019 6 10 0.00 0.00
8:06 am 08:06 Cloudy 72 22.2 67 19.4 84 84 ENE 3 6 30.08 1019 7 11 0.00 0.00
8:53 am 08:53 Cloudy 74 23.3 66 18.9 76 76 NE 3 6 30.09 1019 10 16 0.00 0.00
9:36 am 09:36 Cloudy 75 23.9 66 18.9 74 74 E 5 7 30.08 1019 10 16 0.00 0.00
9:53 am 09:53 Cloudy 75 23.9 66 18.9 74 74 Calm 30.08 1019 10 16 0.00 0.00
10:53 am 10:53 Cloudy 78 25.6 66 18.9 67 67 SSE 6 9 30.08 1019 10 16 0.00 0.00
11:02 am 11:02 Cloudy 77 25 66 18.9 69 69 S 6 9 30.08 1019 10 16 0.00 0.00
11:53 am 11:53 Cloudy 78 25.6 66 18.9 67 67 Calm 30.09 1019 10 16 0.00 0.00
12:53 pm 12:53 Mostly Cloudy 82 27.8 66 18.9 58 58 W 6 9 30.05 1018 10 16 0.00 0.00
1:53 pm 13:53 Sunny 84 28.9 66 18.9 55 55 VRB 5 7 30.01 1016 10 16 0.00 0.00
2:53 pm 14:53 Partly Cloudy 84 28.9 65 18.3 53 53 VRB 3 6 29.98 1015 10 16 0.00 0.00
3:53 pm 15:53 Partly Cloudy 85 29.4 65 18.3 51 51 VRB 5 7 29.96 1015 10 16 0.00 0.00
4:53 pm 16:53 Sunny 87 30.6 64 17.8 46 46 undefined N/A 29.94 1014 10 16 0.00 0.00
5:53 pm 17:53 Sunny 86 30 62 16.7 45 45 W 8 13 29.94 1014 10 16 0.00 0.00
6:53 pm 18:53 Sunny 85 29.4 63 17.2 48 48 SW 6 9 29.93 1014 10 16 0.00 0.00
7:53 pm 19:53 Sunny 81 27.2 64 17.8 57 57 S 3 6 29.93 1013 10 16 0.00 0.00
8:53 pm 20:53 Clear 74 23.3 65 18.3 74 74 SE 5 7 29.93 1014 10 16 0.00 0.00
9:53 pm 21:53 Clear 73 22.8 66 18.9 79 79 SE 3 6 29.94 1014 10 16 0.00 0.00
10:53 pm 22:53 Clear 74 23.3 66 18.9 76 76 Calm 29.93 1014 10 16 0.00 0.00
11:53 pm 23:53 Clear 73 22.8 65 18.3 76 76 Calm 29.93 1013 10 16 0.00 0.00

Powered by AerisWeather